| time (UTC) | temp C | wind direction | speed KPH | gust KPH | rain 1hr cm | rain 24hr cm | rain mn cm | humidity % | barometer mb |
| 20260906110008 | 28 | 84 | 8.0 | 16.1 | 0.00 | 0.00 | 0.00 | 65 | 1019.8 |
| 20260906104512 | 28 | 94 | 8.0 | 16.1 | 0.00 | 0.00 | 0.00 | 65 | 1019.8 |
| 20260906103008 | 29 | 74 | 4.8 | 12.9 | 0.00 | 0.00 | 0.00 | 64 | 1019.9 |
| 20260906101512 | 28 | 83 | 4.8 | 12.9 | 0.00 | 0.00 | 0.00 | 68 | 1020.0 |
| 20260906100012 | 28 | 61 | 4.8 | 14.5 | 0.00 | 0.00 | 0.00 | 69 | 1020.1 |
| 20260906094503 | 28 | 105 | 3.2 | 14.5 | 0.00 | 0.00 | 0.00 | 70 | 1020.2 |
| 20260906093010 | 28 | 86 | 6.4 | 14.5 | 0.00 | 0.00 | 0.00 | 70 | 1020.3 |
| 20260906091523 | 28 | 98 | 9.7 | 16.1 | 0.00 | 0.00 | 0.00 | 71 | 1020.3 |
| 20260906090012 | 28 | 98 | 8.0 | 14.5 | 0.00 | 0.00 | 0.00 | 71 | 1020.3 |
| 20260906084523 | 28 | 96 | 9.7 | 16.1 | 0.00 | 0.00 | 0.00 | 70 | 1020.2 |
| 20260906083003 | 28 | 86 | 6.4 | 12.9 | 0.00 | 0.00 | 0.00 | 70 | 1020.2 |
| 20260906081528 | 28 | 88 | 4.8 | 12.9 | 0.00 | 0.00 | 0.00 | 70 | 1020.2 |
| 20260906080016 | 28 | 61 | 3.2 | 14.5 | 0.00 | 0.00 | 0.00 | 71 | 1020.1 |
| 20260906074515 | 27 | 101 | 6.4 | 12.9 | 0.00 | 0.00 | 0.00 | 71 | 1020.1 |
| 20260906073018 | 27 | 87 | 6.4 | 12.9 | 0.00 | 0.00 | 0.00 | 72 | 1019.9 |
| 20260906071508 | 27 | 88 | 3.2 | 11.3 | 0.00 | 0.00 | 0.00 | 71 | 1019.7 |
| 20260906070012 | 27 | 84 | 6.4 | 12.9 | 0.00 | 0.00 | 0.00 | 71 | 1019.7 |
| 20260906064516 | 27 | 81 | 3.2 | 6.4 | 0.00 | 0.00 | 0.00 | 72 | 1019.6 |
| 20260906063024 | 27 | 119 | 1.6 | 9.7 | 0.00 | 0.00 | 0.00 | 71 | 1019.6 |
| 20260906061523 | 27 | 90 | 0.0 | 0.0 | 0.00 | 0.00 | 0.00 | 71 | 1019.5 |
| 20260906060011 | 26 | 194 | 0.0 | 0.0 | 0.00 | 0.00 | 0.00 | 72 | 1019.5 |
| 20260906054517 | 25 | 186 | 0.0 | 6.4 | 0.00 | 0.00 | 0.00 | 75 | 1019.4 |
| 20260906053026 | 25 | 119 | 1.6 | 8.0 | 0.00 | 0.00 | 0.00 | 77 | 1019.4 |
| 20260906051532 | 25 | 360 | 1.6 | 6.4 | 0.00 | 0.00 | 0.00 | 78 | 1019.4 |
| 20260906050048 | 24 | 206 | 4.8 | 9.7 | 0.00 | 0.00 | 0.00 | 79 | 1019.2 |
| 20260906044516 | 24 | 192 | 4.8 | 9.7 | 0.00 | 0.00 | 0.00 | 78 | 1019.2 |
| 20260906043025 | 24 | 194 | 6.4 | 11.3 | 0.00 | 0.00 | 0.00 | 76 | 1019.1 |
| 20260906041529 | 24 | 211 | 6.4 | 12.9 | 0.00 | 0.00 | 0.00 | 75 | 1018.9 |
| 20260906040010 | 24 | 186 | 8.0 | 14.5 | 0.00 | 0.00 | 0.00 | 73 | 1018.8 |
| 20260906034514 | 24 | 192 | 4.8 | 11.3 | 0.00 | 0.00 | 0.00 | 69 | 1018.7 |
| 20260906033024 | 24 | 360 | 4.8 | 12.9 | 0.00 | 0.00 | 0.00 | 66 | 1018.7 |
| 20260906031505 | 24 | 198 | 4.8 | 9.7 | 0.00 | 0.00 | 0.00 | 64 | 1018.6 |
| 20260906030007 | 24 | 360 | 6.4 | 12.9 | 0.00 | 0.00 | 0.00 | 71 | 1018.7 |
| 20260906024510 | 24 | 221 | 3.2 | 9.7 | 0.00 | 0.00 | 0.00 | 74 | 1018.7 |
| 20260906023024 | 25 | 207 | 3.2 | 9.7 | 0.00 | 0.00 | 0.00 | 76 | 1018.8 |
| 20260906021530 | 25 | 194 | 0.0 | 8.0 | 0.00 | 0.00 | 0.00 | 76 | 1018.9 |
| 20260906020009 | 24 | 184 | 1.6 | 9.7 | 0.00 | 0.00 | 0.00 | 76 | 1018.8 |
| 20260906014510 | 24 | 202 | 4.8 | 11.3 | 0.00 | 0.00 | 0.00 | 73 | 1018.9 |
| 20260906013014 | 24 | 204 | 6.4 | 9.7 | 0.00 | 0.00 | 0.00 | 71 | 1019.0 |
| 20260906011523 | 24 | 360 | 8.0 | 12.9 | 0.00 | 0.00 | 0.00 | 71 | 1019.1 |
| 20260906010026 | 24 | 196 | 4.8 | 11.3 | 0.00 | 0.00 | 0.00 | 71 | 1019.1 |
| 20260906004508 | 25 | 183 | 6.4 | 12.9 | 0.00 | 0.00 | 0.00 | 68 | 1019.1 |
| 20260906003012 | 25 | 360 | 4.8 | 9.7 | 0.00 | 0.00 | 0.00 | 65 | 1019.2 |
| 20260906001516 | 25 | 194 | 4.8 | 12.9 | 0.00 | 0.00 | 0.00 | 65 | 1019.1 |
| 20260906000028 | 25 | 196 | 8.0 | 14.5 | 0.00 | 0.00 | 0.00 | 63 | 1019.2 |
| 20260905234529 | 25 | 190 | 8.0 | 14.5 | 0.00 | 0.00 | 0.00 | 58 | 1019.4 |
| 20260905233020 | 25 | 198 | 8.0 | 16.1 | 0.00 | 0.00 | 0.00 | 62 | 1019.4 |
| 20260905231520 | 25 | 209 | 6.4 | 16.1 | 0.00 | 0.00 | 0.00 | 68 | 1019.5 |
| 20260905230025 | 25 | 179 | 9.7 | 14.5 | 0.00 | 0.00 | 0.00 | 68 | 1019.4 |
| 20260905224526 | 25 | 203 | 8.0 | 16.1 | 0.00 | 0.00 | 0.00 | 68 | 1019.4 |
| 20260905223030 | 25 | 360 | 6.4 | 14.5 | 0.00 | 0.00 | 0.00 | 65 | 1019.5 |
| 20260905221518 | 25 | 360 | 6.4 | 14.5 | 0.00 | 0.00 | 0.00 | 65 | 1019.5 |
| 20260905220019 | 25 | 196 | 6.4 | 12.9 | 0.00 | 0.00 | 0.00 | 67 | 1019.5 |
| 20260905214529 | 25 | 192 | 6.4 | 16.1 | 0.00 | 0.00 | 0.00 | 68 | 1019.4 |
| 20260905213030 | 25 | 211 | 8.0 | 14.5 | 0.00 | 0.00 | 0.00 | 67 | 1019.4 |
| 20260905211532 | 26 | 213 | 4.8 | 12.9 | 0.00 | 0.00 | 0.00 | 65 | 1019.5 |
| 20260905210014 | 26 | 180 | 6.4 | 11.3 | 0.00 | 0.00 | 0.00 | 64 | 1019.5 |
| 20260905204524 | 26 | 188 | 3.2 | 12.9 | 0.00 | 0.00 | 0.00 | 69 | 1019.6 |
| 20260905203029 | 26 | 190 | 3.2 | 9.7 | 0.00 | 0.00 | 0.00 | 71 | 1019.6 |
| 20260905201537 | 26 | 183 | 6.4 | 11.3 | 0.00 | 0.00 | 0.00 | 71 | 1019.7 |
| 20260905200030 | 26 | 176 | 4.8 | 9.7 | 0.00 | 0.00 | 0.00 | 72 | 1019.7 |
| 20260905200001 | 26 | 199 | 4.8 | 9.7 | 0.00 | 0.00 | 0.00 | 72 | 1019.7 |
| 20260905194506 | 26 | 184 | 3.2 | 8.0 | 0.00 | 0.00 | 0.00 | 71 | 1019.7 |
| 20260905193004 | 26 | 182 | 1.6 | 9.7 | 0.00 | 0.00 | 0.00 | 69 | 1019.7 |
| 20260905191508 | 26 | 211 | 4.8 | 9.7 | 0.00 | 0.00 | 0.00 | 68 | 1019.6 |
| 20260905190015 | 26 | 175 | 4.8 | 11.3 | 0.00 | 0.00 | 0.00 | 68 | 1019.4 |
| 20260905184507 | 27 | 187 | 3.2 | 6.4 | 0.00 | 0.00 | 0.00 | 66 | 1019.4 |
| 20260905183004 | 27 | 187 | 3.2 | 6.4 | 0.00 | 0.00 | 0.00 | 65 | 1019.2 |
| 20260905181510 | 27 | 207 | 3.2 | 6.4 | 0.00 | 0.00 | 0.00 | 65 | 1019.1 |
| 20260905180011 | 27 | 360 | 1.6 | 6.4 | 0.00 | 0.00 | 0.00 | 64 | 1018.9 |
| 20260905174528 | 28 | 192 | 0.0 | 3.2 | 0.00 | 0.00 | 0.00 | 63 | 1018.8 |
| 20260905173004 | 28 | 194 | 0.0 | 0.0 | 0.00 | 0.00 | 0.00 | 62 | 1018.8 |
| 20260905171506 | 28 | 80 | 0.0 | 3.2 | 0.00 | 0.00 | 0.00 | 61 | 1018.8 |
| 20260905170004 | 29 | 75 | 0.0 | 4.8 | 0.00 | 0.00 | 0.00 | 61 | 1018.7 |
| 20260905164510 | 29 | 88 | 1.6 | 4.8 | 0.00 | 0.00 | 0.00 | 61 | 1018.8 |
| 20260905163014 | 29 | 71 | 4.8 | 8.0 | 0.00 | 0.00 | 0.00 | 61 | 1018.8 |
| 20260905161503 | 30 | 70 | 3.2 | 6.4 | 0.00 | 0.00 | 0.00 | 58 | 1018.8 |
| 20260905160004 | 30 | 115 | 1.6 | 8.0 | 0.00 | 0.00 | 0.00 | 59 | 1018.9 |
| 20260905154515 | 30 | 103 | 1.6 | 9.7 | 0.00 | 0.00 | 0.00 | 59 | 1018.9 |
| 20260905153014 | 30 | 61 | 3.2 | 11.3 | 0.00 | 0.00 | 0.00 | 60 | 1019.0 |
| 20260905151520 | 30 | 104 | 4.8 | 11.3 | 0.00 | 0.00 | 0.00 | 61 | 1018.9 |
| 20260905150004 | 30 | 59 | 4.8 | 11.3 | 0.00 | 0.00 | 0.00 | 61 | 1018.9 |
| 20260905144520 | 30 | 86 | 3.2 | 12.9 | 0.00 | 0.00 | 0.00 | 65 | 1018.9 |
| 20260905143018 | 30 | 61 | 6.4 | 12.9 | 0.00 | 0.00 | 0.00 | 63 | 1018.9 |
| 20260905141525 | 30 | 71 | 4.8 | 16.1 | 0.00 | 0.00 | 0.00 | 62 | 1018.9 |
| 20260905140031 | 30 | 65 | 4.8 | 14.5 | 0.00 | 0.00 | 0.00 | 63 | 1018.9 |
| 20260905134529 | 30 | 88 | 4.8 | 11.3 | 0.00 | 0.00 | 0.00 | 62 | 1018.8 |
| 20260905133010 | 30 | 159 | 4.8 | 11.3 | 0.00 | 0.00 | 0.00 | 63 | 1018.8 |
| 20260905131514 | 30 | 96 | 3.2 | 16.1 | 0.00 | 0.00 | 0.00 | 64 | 1019.0 |
| 20260905130021 | 30 | 122 | 4.8 | 12.9 | 0.00 | 0.00 | 0.00 | 64 | 1019.0 |
| 20260905124525 | 30 | 140 | 6.4 | 12.9 | 0.00 | 0.00 | 0.00 | 65 | 1019.1 |
| 20260905123007 | 30 | 76 | 9.7 | 16.1 | 0.00 | 0.00 | 0.00 | 65 | 1019.2 |
| 20260905121508 | 30 | 78 | 4.8 | 11.3 | 0.00 | 0.00 | 0.00 | 66 | 1019.3 |
| 20260905120015 | 30 | 113 | 4.8 | 14.5 | 0.00 | 0.00 | 0.00 | 67 | 1019.3 |
| 20260905114532 | 29 | 109 | 8.0 | 16.1 | 0.00 | 0.00 | 0.00 | 68 | 1019.3 |
| 20260905113007 | 29 | 59 | 8.0 | 14.5 | 0.00 | 0.00 | 0.00 | 68 | 1019.3 |
| 20260905111504 | 28 | 57 | 8.0 | 16.1 | 0.00 | 0.00 | 0.00 | 69 | 1019.3 |